Location: Val-d'Or
(48.1170°N, 77.7670°W)
Time: 21:32:49
(UTC-04:00)

ISS - Pass Details

Date: 22 May 2018
Orbit: 402 x 407 km, 51.6° (Epoch: 23 May)

Event Time Altitude Azimuth Distance (km) Brightness Sun altitude
Rises 21:34:00 0° 217° (SW) 2,309 0.0 -6.4°
Reaches altitude 10° 21:36:13 10° 206° (SSW) 1,453 -1.2 -6.7°
Maximum altitude 21:39:06 29° 144° (SE) 763 -3.0 -7.0°
Drops below altitude 10° 21:42:00 10° 81° (E) 1,458 -1.4 -7.4°
Sets 21:44:14 0° 70° (ENE) 2,320 -0.3 -7.6°
